| time (UTC) | temp C | wind direction | speed KPH | gust KPH | rain 1hr cm | rain 24hr cm | rain mn cm | humidity % | barometer mb |
| 20260505153018 | 22 | 113 | 1.6 | 6.4 | 0.00 | 0.00 | 0.00 | 51 | 1008.8 |
| 20260505152017 | 21 | 248 | 3.2 | 8.0 | 0.00 | 0.00 | 0.00 | 54 | 1008.9 |
| 20260505151018 | 21 | 248 | 3.2 | 12.9 | 0.00 | 0.00 | 0.00 | 53 | 1009.0 |
| 20260505125018 | 14 | 248 | 1.6 | 6.4 | 0.00 | 0.00 | 0.00 | 75 | 1009.2 |
| 20260505124017 | 13 | 0.0 | 4.8 | 0.00 | 0.00 | 0.00 | 78 | 1009.1 | |
| 20260505123037 | 13 | 248 | 1.6 | 6.4 | 0.00 | 0.00 | 0.00 | 80 | 1009.1 |
| 20260505122018 | 12 | 203 | 1.6 | 6.4 | 0.00 | 0.00 | 0.00 | 82 | 1009.1 |
| 20260505121017 | 12 | 248 | 3.2 | 12.9 | 0.00 | 0.00 | 0.00 | 83 | 1009.1 |
| 20260505120017 | 11 | 248 | 1.6 | 4.8 | 0.00 | 0.00 | 0.00 | 83 | 1009.1 |
| 20260505115017 | 11 | 225 | 1.6 | 6.4 | 0.00 | 0.00 | 0.00 | 83 | 1009.3 |
| 20260505114017 | 11 | 225 | 1.6 | 11.3 | 0.00 | 0.00 | 0.00 | 84 | 1009.5 |
| 20260505113038 | 11 | 248 | 1.6 | 6.4 | 0.00 | 0.00 | 0.00 | 84 | 1009.6 |
| 20260505112017 | 11 | 248 | 3.2 | 11.3 | 0.00 | 0.00 | 0.00 | 84 | 1009.3 |
| 20260505111017 | 11 | 225 | 1.6 | 6.4 | 0.00 | 0.00 | 0.00 | 84 | 1009.3 |
| 20260505102017 | 10 | 270 | 1.6 | 4.8 | 0.00 | 0.00 | 0.00 | 84 | 1008.6 |
| 20260505101017 | 10 | 248 | 1.6 | 6.4 | 0.00 | 0.00 | 0.00 | 83 | 1008.5 |
| 20260505100017 | 10 | 225 | 1.6 | 6.4 | 0.00 | 0.00 | 0.00 | 83 | 1008.5 |
| 20260505095059 | 10 | 248 | 1.6 | 6.4 | 0.00 | 0.00 | 0.00 | 83 | 1008.6 |
| 20260505094017 | 10 | 248 | 1.6 | 4.8 | 0.00 | 0.00 | 0.00 | 83 | 1008.6 |
| 20260505093018 | 10 | 158 | 1.6 | 9.7 | 0.00 | 0.00 | 0.00 | 82 | 1008.7 |
| 20260505092017 | 10 | 0.0 | 4.8 | 0.00 | 0.00 | 0.00 | 82 | 1008.7 | |
| 20260505091017 | 10 | 248 | 1.6 | 4.8 | 0.00 | 0.00 | 0.00 | 82 | 1008.8 |
| 20260505090017 | 10 | 248 | 1.6 | 8.0 | 0.00 | 0.00 | 0.00 | 82 | 1008.8 |
| 20260505085037 | 10 | 248 | 1.6 | 11.3 | 0.00 | 0.00 | 0.00 | 81 | 1008.8 |
| 20260505084017 | 10 | 225 | 1.6 | 9.7 | 0.00 | 0.00 | 0.00 | 81 | 1008.9 |
| 20260505083038 | 10 | 248 | 3.2 | 9.7 | 0.00 | 0.00 | 0.00 | 81 | 1008.9 |
| 20260505082017 | 10 | 225 | 1.6 | 9.7 | 0.00 | 0.00 | 0.00 | 80 | 1009.0 |
| 20260505081037 | 10 | 225 | 1.6 | 4.8 | 0.00 | 0.00 | 0.00 | 80 | 1009.1 |
| 20260505080018 | 10 | 248 | 1.6 | 6.4 | 0.00 | 0.00 | 0.00 | 79 | 1009.2 |
| 20260505075018 | 10 | 0.0 | 3.2 | 0.00 | 0.00 | 0.00 | 78 | 1009.1 | |
| 20260505074017 | 11 | 0.0 | 3.2 | 0.00 | 0.00 | 0.00 | 78 | 1009.2 | |
| 20260505073017 | 11 | 0.0 | 3.2 | 0.00 | 0.00 | 0.00 | 77 | 1009.2 | |
| 20260505072017 | 11 | 225 | 1.6 | 6.4 | 0.00 | 0.00 | 0.00 | 77 | 1009.3 |
| 20260505071018 | 11 | 248 | 1.6 | 3.2 | 0.00 | 0.00 | 0.00 | 77 | 1009.4 |
| 20260505070017 | 11 | 225 | 1.6 | 6.4 | 0.00 | 0.00 | 0.00 | 77 | 1009.2 |
| 20260505065017 | 11 | 0.0 | 3.2 | 0.00 | 0.00 | 0.00 | 77 | 1009.3 | |
| 20260505064018 | 11 | 0.0 | 3.2 | 0.00 | 0.00 | 0.00 | 77 | 1009.4 | |
| 20260505063017 | 11 | 248 | 1.6 | 4.8 | 0.00 | 0.00 | 0.00 | 78 | 1009.5 |
| 20260505062017 | 10 | 0.0 | 3.2 | 0.00 | 0.00 | 0.00 | 78 | 1009.5 | |
| 20260505061018 | 10 | 0.0 | 8.0 | 0.00 | 0.00 | 0.00 | 78 | 1009.6 | |
| 20260505060017 | 10 | 180 | 1.6 | 8.0 | 0.00 | 0.00 | 0.00 | 78 | 1009.7 |
| 20260505055017 | 10 | 0.0 | 1.6 | 0.00 | 0.00 | 0.00 | 79 | 1009.8 | |
| 20260505054018 | 10 | 0.0 | 3.2 | 0.00 | 0.00 | 0.00 | 79 | 1009.7 | |
| 20260505053017 | 10 | 0.0 | 3.2 | 0.00 | 0.00 | 0.00 | 78 | 1009.7 | |
| 20260505052017 | 10 | 0.0 | 1.6 | 0.00 | 0.00 | 0.00 | 78 | 1009.9 | |
| 20260505051017 | 10 | 0.0 | 4.8 | 0.00 | 0.00 | 0.00 | 78 | 1009.9 | |
| 20260505041038 | 11 | 248 | 1.6 | 8.0 | 0.00 | 0.00 | 0.00 | 76 | 1009.8 |
| 20260505040019 | 11 | 248 | 1.6 | 8.0 | 0.00 | 0.00 | 0.00 | 76 | 1009.8 |
| 20260505035016 | 11 | 248 | 1.6 | 8.0 | 0.00 | 0.00 | 0.00 | 75 | 1009.7 |
| 20260505034017 | 11 | 248 | 1.6 | 4.8 | 0.00 | 0.00 | 0.00 | 75 | 1009.5 |
| 20260505033017 | 11 | 248 | 1.6 | 6.4 | 0.00 | 0.00 | 0.00 | 74 | 1009.5 |
| 20260505032016 | 11 | 225 | 1.6 | 8.0 | 0.00 | 0.00 | 0.00 | 73 | 1009.5 |
| 20260505031016 | 11 | 248 | 1.6 | 8.0 | 0.00 | 0.00 | 0.00 | 72 | 1009.4 |
| 20260505030016 | 11 | 270 | 1.6 | 6.4 | 0.00 | 0.00 | 0.00 | 71 | 1009.4 |
| 20260505025016 | 12 | 248 | 1.6 | 6.4 | 0.00 | 0.00 | 0.00 | 70 | 1009.2 |
| 20260505024016 | 12 | 248 | 1.6 | 8.0 | 0.00 | 0.00 | 0.00 | 69 | 1009.3 |
| 20260505023016 | 12 | 248 | 1.6 | 9.7 | 0.00 | 0.00 | 0.00 | 68 | 1009.3 |
| 20260505022036 | 12 | 248 | 1.6 | 6.4 | 0.00 | 0.00 | 0.00 | 67 | 1009.4 |
| 20260505021016 | 12 | 248 | 1.6 | 4.8 | 0.00 | 0.00 | 0.00 | 66 | 1009.3 |
| 20260505020016 | 12 | 248 | 1.6 | 8.0 | 0.00 | 0.00 | 0.00 | 65 | 1009.2 |
| 20260505015056 | 13 | 248 | 3.2 | 9.7 | 0.00 | 0.00 | 0.00 | 64 | 1009.3 |
| 20260505014016 | 13 | 248 | 1.6 | 8.0 | 0.00 | 0.00 | 0.00 | 63 | 1009.3 |
| 20260505013016 | 13 | 248 | 1.6 | 8.0 | 0.00 | 0.00 | 0.00 | 62 | 1009.2 |
| 20260505012017 | 13 | 248 | 1.6 | 14.5 | 0.00 | 0.00 | 0.00 | 61 | 1009.0 |
| 20260505011016 | 13 | 248 | 1.6 | 8.0 | 0.00 | 0.00 | 0.00 | 60 | 1008.8 |
| 20260505010017 | 14 | 248 | 3.2 | 9.7 | 0.00 | 0.00 | 0.00 | 59 | 1008.7 |
| 20260505005016 | 14 | 248 | 1.6 | 6.4 | 0.00 | 0.00 | 0.00 | 58 | 1008.6 |
| 20260505004016 | 15 | 225 | 3.2 | 12.9 | 0.00 | 0.00 | 0.00 | 57 | 1008.3 |
| 20260505003016 | 15 | 248 | 1.6 | 6.4 | 0.00 | 0.00 | 0.00 | 56 | 1008.2 |
| 20260505002016 | 15 | 248 | 3.2 | 9.7 | 0.00 | 0.00 | 0.00 | 55 | 1008.1 |
| 20260505001016 | 15 | 248 | 3.2 | 8.0 | 0.00 | 0.00 | 0.00 | 54 | 1007.8 |
| 20260505000037 | 16 | 225 | 3.2 | 9.7 | 0.00 | 0.00 | 0.00 | 53 | 1007.6 |
| 20260504235037 | 16 | 248 | 1.6 | 8.0 | 0.00 | 0.00 | 0.00 | 52 | 1007.5 |
| 20260504234036 | 16 | 270 | 1.6 | 8.0 | 0.00 | 0.00 | 0.00 | 50 | 1007.3 |
| 20260504233016 | 17 | 203 | 3.2 | 16.1 | 0.00 | 0.00 | 0.00 | 45 | 1007.2 |
| 20260504232017 | 18 | 248 | 1.6 | 6.4 | 0.00 | 0.00 | 0.00 | 41 | 1006.9 |
| 20260504231016 | 18 | 0.0 | 1.6 | 0.00 | 0.00 | 0.00 | 40 | 1006.8 | |
| 20260504230016 | 18 | 225 | 3.2 | 16.1 | 0.00 | 0.00 | 0.00 | 40 | 1006.7 |
| 20260504225016 | 18 | 248 | 3.2 | 11.3 | 0.00 | 0.00 | 0.00 | 39 | 1006.7 |
| 20260504224016 | 18 | 248 | 4.8 | 24.1 | 0.00 | 0.00 | 0.00 | 39 | 1006.6 |
| 20260504223016 | 18 | 248 | 3.2 | 9.7 | 0.00 | 0.00 | 0.00 | 39 | 1006.6 |
| 20260504222016 | 18 | 248 | 4.8 | 12.9 | 0.00 | 0.00 | 0.00 | 38 | 1006.7 |
| 20260504221017 | 19 | 225 | 4.8 | 17.7 | 0.00 | 0.00 | 0.00 | 38 | 1006.7 |
| 20260504220016 | 19 | 248 | 1.6 | 8.0 | 0.00 | 0.00 | 0.00 | 38 | 1006.7 |
| 20260504215016 | 19 | 248 | 4.8 | 11.3 | 0.00 | 0.00 | 0.00 | 38 | 1006.9 |
| 20260504214016 | 20 | 225 | 3.2 | 8.0 | 0.00 | 0.00 | 0.00 | 38 | 1006.7 |
| 20260504213016 | 20 | 248 | 3.2 | 12.9 | 0.00 | 0.00 | 0.00 | 37 | 1006.9 |
| 20260504212017 | 19 | 248 | 4.8 | 9.7 | 0.00 | 0.00 | 0.00 | 37 | 1006.9 |
| 20260504211015 | 19 | 248 | 3.2 | 12.9 | 0.00 | 0.00 | 0.00 | 38 | 1006.9 |
| 20260504210016 | 19 | 248 | 4.8 | 14.5 | 0.00 | 0.00 | 0.00 | 38 | 1007.0 |
| 20260504205015 | 20 | 248 | 4.8 | 14.5 | 0.00 | 0.00 | 0.00 | 36 | 1007.0 |
| 20260504204016 | 20 | 248 | 3.2 | 8.0 | 0.00 | 0.00 | 0.00 | 37 | 1007.0 |
| 20260504203036 | 19 | 248 | 4.8 | 17.7 | 0.00 | 0.00 | 0.00 | 37 | 1006.9 |
| 20260504202015 | 20 | 225 | 3.2 | 11.3 | 0.00 | 0.00 | 0.00 | 36 | 1007.0 |
| 20260504201016 | 20 | 248 | 3.2 | 12.9 | 0.00 | 0.00 | 0.00 | 36 | 1007.2 |
| 20260504200018 | 19 | 248 | 3.2 | 11.3 | 0.00 | 0.00 | 0.00 | 37 | 1007.2 |
| 20260504195018 | 20 | 270 | 3.2 | 9.7 | 0.00 | 0.00 | 0.00 | 36 | 1007.3 |
| 20260504194018 | 20 | 225 | 3.2 | 9.7 | 0.00 | 0.00 | 0.00 | 36 | 1007.4 |
| 20260504193038 | 20 | 248 | 6.4 | 16.1 | 0.00 | 0.00 | 0.00 | 35 | 1007.3 |
| 20260504192018 | 19 | 248 | 4.8 | 20.9 | 0.00 | 0.00 | 0.00 | 36 | 1007.2 |
| 20260504191017 | 20 | 248 | 4.8 | 16.1 | 0.00 | 0.00 | 0.00 | 38 | 1007.5 |
| 20260504190038 | 19 | 248 | 4.8 | 12.9 | 0.00 | 0.00 | 0.00 | 37 | 1007.5 |
| 20260504185058 | 18 | 248 | 6.4 | 22.5 | 0.00 | 0.00 | 0.00 | 38 | 1007.5 |
| 20260504184019 | 19 | 270 | 4.8 | 16.1 | 0.00 | 0.00 | 0.00 | 35 | 1007.6 |
| 20260504183018 | 19 | 270 | 3.2 | 11.3 | 0.00 | 0.00 | 0.00 | 36 | 1007.6 |
| 20260504182018 | 19 | 248 | 4.8 | 14.5 | 0.00 | 0.00 | 0.00 | 35 | 1007.9 |
| 20260504181017 | 18 | 248 | 4.8 | 17.7 | 0.00 | 0.00 | 0.00 | 38 | 1008.0 |
| 20260504180018 | 19 | 248 | 8.0 | 16.1 | 0.00 | 0.00 | 0.00 | 35 | 1007.9 |
| 20260504175037 | 19 | 248 | 6.4 | 12.9 | 0.00 | 0.00 | 0.00 | 37 | 1008.0 |
| 20260504174038 | 18 | 248 | 6.4 | 16.1 | 0.00 | 0.00 | 0.00 | 37 | 1007.9 |
| 20260504173018 | 18 | 248 | 4.8 | 14.5 | 0.00 | 0.00 | 0.00 | 35 | 1007.9 |
| 20260504172017 | 18 | 248 | 6.4 | 16.1 | 0.00 | 0.00 | 0.00 | 35 | 1008.0 |
| 20260504171018 | 18 | 248 | 8.0 | 16.1 | 0.00 | 0.00 | 0.00 | 35 | 1008.2 |